Alpena, MI

3:37 AM EDT on March 24, 2017 (GMT -0400)
Alpena County Regional

Weather History for KAPN - October, 2012

Change the Weather History Date:

Friday, October 19, 2012

  Actual Average Record
Temperature  
Mean Temperature 49 °F 45 °F  
Max Temperature 54 °F 55 °F 78 °F (1953)
Min Temperature 43 °F 35 °F 20 °F (1934)
Degree Days  
Heating Degree Days 16 20  
Month to date heating degree days 321 320  
Since 1 July heating degree days 624 677  
Cooling Degree Days 0 0  
Month to date cooling degree days 0 0  
Year to date cooling degree days 482 289  
Moisture  
Dew Point 46 °F    
Average Humidity 87    
Maximum Humidity 93    
Minimum Humidity 80    
Precipitation  
Precipitation 0.34 in 0.08 in 1.02 in (1917)
Month to date precipitation 3.46 1.68  
Year to date precipitation 23.10 23.38  
Snow  
Snow T in 0.00 in 2.90 in (1930)
Month to date snowfall T 0.1  
Since 1 July snowfall T 0.1  
Snow Depth 0.00 in    
Sea Level Pressure  
Sea Level Pressure 29.63 in    
Wind  
Wind Speed 7 mph (SE)    
Max Wind Speed 22 mph    
Max Gust Speed 35 mph    
Visibility 8 miles    
Events Rain , Thunderstorm    
T = Trace of Precipitation, MM = Missing Value Source: NWS Daily Summary

Daily Weather History Graph

Daily Weather History Graph

Search for Another Location

Airport or City:

Trip Planner

Search our weather history database for the weather conditions in past years. The results will help you decide how hot, cold, wet, or windy it might be!

Date:

Astronomy

Oct. 19, 2012 Rise Set
Actual Time 7:55 AM EDT 6:41 PM EDT
Civil Twilight 7:26 AM EDT 7:11 PM EDT
Nautical Twilight 6:51 AM EDT 7:45 PM EDT
Astronomical Twilight 6:17 AM EDT 8:19 PM EDT
Moon 12:47 PM EDT (10/19) 10:09 PM EDT (10/19)
Length of Visible Light 11h 45m
Length of Day
10h 45m
Waxing Crescent, 23% of the Moon is Illuminated
Oct 19
Waxing Crescent
Oct 21
First Quarter
Oct 29
Full
Nov 6
Last Quarter
Nov 13
New

Hourly Weather History & Observations

Time (EDT) Temp. Windchill Dew Point Humidity Pressure Visibility Wind Dir Wind Speed Gust Speed Precip Events Conditions
12:54 AM 46.9 °F - 42.1 °F 83% 29.65 in 10.0 mi SE 6.9 mph - N/A   Overcast
1:54 AM 46.9 °F - 42.1 °F 83% 29.65 in 10.0 mi SE 6.9 mph - N/A   Overcast
2:54 AM 48.0 °F - 42.1 °F 80% 29.65 in 10.0 mi SE 6.9 mph - N/A   Overcast
3:54 AM 46.9 °F - 41.0 °F 80% 29.65 in 10.0 mi SSE 5.8 mph - N/A   Overcast
4:54 AM 45.0 °F 42.6 °F 41.0 °F 86% 29.65 in 10.0 mi SSE 4.6 mph - N/A   Overcast
5:54 AM 43.0 °F - 39.9 °F 89% 29.65 in 10.0 mi Calm Calm - N/A   Overcast
6:54 AM 46.0 °F 43.9 °F 42.1 °F 86% 29.65 in 10.0 mi ESE 4.6 mph - N/A   Overcast
7:42 AM 48.2 °F - 44.6 °F 87% 29.64 in 10.0 mi ESE 5.8 mph - N/A   Overcast
7:54 AM 50.0 °F - 48.0 °F 93% 29.65 in 10.0 mi ESE 9.2 mph - N/A   Overcast
8:00 AM 50.0 °F - 48.2 °F 94% 29.64 in 10.0 mi ESE 9.2 mph - N/A   Overcast
8:19 AM 50.0 °F - 48.2 °F 94% 29.65 in 10.0 mi ESE 10.4 mph - N/A   Overcast
8:40 AM 51.8 °F - 48.2 °F 88% 29.65 in 9.0 mi ESE 8.1 mph - N/A   Overcast
8:54 AM 51.1 °F - 48.9 °F 92% 29.66 in 4.0 mi ESE 6.9 mph - 0.00 in Rain Light Rain
9:12 AM 51.8 °F - 50.0 °F 94% 29.65 in 6.0 mi ESE 9.2 mph - 0.05 in Rain Light Rain
9:25 AM 51.8 °F - 48.2 °F 88% 29.65 in 9.0 mi ESE 8.1 mph - 0.05 in Rain , Thunderstorm Light Thunderstorms and Rain
9:42 AM 51.8 °F - 50.0 °F 94% 29.65 in 8.0 mi ESE 8.1 mph - 0.06 in   Mostly Cloudy
9:54 AM 51.1 °F - 50.0 °F 96% 29.66 in 9.0 mi ESE 8.1 mph - 0.06 in   Overcast
10:54 AM 52.0 °F - 48.9 °F 89% 29.66 in 9.0 mi SE 13.8 mph 21.9 mph 0.00 in Rain Light Rain
11:07 AM 51.8 °F - 50.0 °F 94% 29.63 in 10.0 mi ESE 9.2 mph - 0.00 in   Overcast
11:14 AM 51.8 °F - 50.0 °F 94% 29.63 in 10.0 mi ESE 11.5 mph - 0.00 in   Overcast
11:30 AM 51.8 °F - 48.2 °F 88% 29.63 in 10.0 mi ESE 8.1 mph 17.3 mph 0.00 in   Overcast
11:54 AM 53.1 °F - 48.0 °F 83% 29.63 in 10.0 mi SE 10.4 mph - 0.00 in   Overcast
12:17 PM 53.6 °F - 48.2 °F 82% 29.62 in 10.0 mi SE 17.3 mph 24.2 mph N/A Thunderstorm Thunderstorm
12:32 PM 51.8 °F - 48.2 °F 88% 29.63 in 10.0 mi SE 13.8 mph - N/A   Overcast
12:54 PM 52.0 °F - 48.0 °F 86% 29.63 in 10.0 mi ESE 10.4 mph - 0.00 in   Overcast
1:41 PM 48.2 °F - 46.4 °F 93% 29.62 in 2.5 mi South 17.3 mph 24.2 mph 0.00 in Rain Light Rain
1:49 PM 48.2 °F - 44.6 °F 87% 29.63 in 2.5 mi SSE 12.7 mph 23.0 mph 0.07 in Rain , Thunderstorm Light Thunderstorms and Rain
1:54 PM 48.0 °F - 45.0 °F 89% 29.64 in 7.0 mi SSE 12.7 mph - 0.08 in Rain , Thunderstorm Light Thunderstorms and Rain
2:01 PM 48.2 °F - 44.6 °F 87% 29.62 in 5.0 mi SSE 13.8 mph 20.7 mph 0.00 in Rain Light Rain
2:54 PM 50.0 °F - 45.0 °F 83% 29.61 in 7.0 mi SE 11.5 mph 26.5 mph 0.02 in Rain Light Rain
3:54 PM 53.1 °F - 46.9 °F 80% 29.60 in 10.0 mi ESE 9.2 mph - 0.00 in Rain Light Rain
4:54 PM 52.0 °F - 46.0 °F 80% 29.59 in 10.0 mi East 8.1 mph - 0.00 in Rain Light Rain
5:09 PM 51.8 °F - 46.4 °F 82% 29.57 in 9.0 mi East 9.2 mph - 0.01 in Rain , Thunderstorm Light Thunderstorms and Rain
5:29 PM 50.0 °F - 46.4 °F 87% 29.59 in 2.0 mi South 19.6 mph 34.5 mph 0.05 in Rain , Thunderstorm Heavy Thunderstorms and Rain
5:31 PM 48.2 °F - 46.4 °F 93% 29.60 in 1.5 mi SSE 17.3 mph 34.5 mph 0.06 in Rain , Thunderstorm Heavy Thunderstorms and Rain
5:38 PM 46.4 °F 40.1 °F 44.6 °F 93% 29.60 in 0.8 mi ESE 15.0 mph 26.5 mph 0.13 in Rain , Thunderstorm Thunderstorms and Rain
5:49 PM 46.4 °F 41.9 °F 44.6 °F 93% 29.60 in 2.5 mi SE 9.2 mph 18.4 mph 0.16 in Rain , Thunderstorm Thunderstorms and Rain
5:54 PM 46.9 °F - 44.1 °F 90% 29.61 in 8.0 mi SE 6.9 mph - 0.16 in Rain , Thunderstorm Light Thunderstorms and Rain
6:54 PM 46.9 °F - 44.1 °F 90% 29.62 in 10.0 mi SE 8.1 mph - 0.00 in   Mostly Cloudy
7:54 PM 48.0 °F - 45.0 °F 89% 29.62 in 10.0 mi SE 5.8 mph - N/A   Overcast
8:54 PM 46.9 °F - 45.0 °F 93% 29.62 in 10.0 mi Calm Calm - N/A   Overcast
9:54 PM 48.0 °F - 46.0 °F 93% 29.63 in 9.0 mi ESE 8.1 mph - 0.01 in Rain Light Rain
10:54 PM 48.0 °F - 46.0 °F 93% 29.62 in 10.0 mi East 6.9 mph - 0.01 in Rain Light Rain
11:54 PM 48.0 °F - 46.0 °F 93% 29.61 in 10.0 mi East 6.9 mph - 0.00 in   Overcast